Location: Plainartige
(45.6866°N, 1.7993°E)
Time: 19:50:55
(UTC+00:00)

IRS-1A Rocket - Pass Details

Date: 03 March 2021
Orbit: 851 x 931 km, 99.2° (Epoch: 13 April)

Event Time Altitude Azimuth Distance (km) Brightness Sun altitude
Exits shadow 19:46:41 29° 157° (SSE) 1,543 5.2 -22.3°
Maximum altitude 19:49:40 82° 74° (ENE) 887 4.1 -22.8°
Drops below altitude 10° 19:55:15 10° 347° (NNW) 2,512 7.0 -23.8°
Sets 19:57:37 0° 347° (NNW) 3,445 7.8 -24.2°
